ROMMA est une association bénévole à but non lucratif. Votre soutien est indispensable : ADHERER à ROMMA ou FAIRE un DON

Le Versoud - (38, Isère)

Vallée du Grésivaudan (220 m)   Longitude: 05° 51' 44" E   Latitude: 45° 13' 06" N Station partenaire n°6
 

Détail journalier du     <<     >>

Température Humidité Pression Vent Dir Rafale Dir. rafale Ensol.
Heure (°C) (%) (hPa) (km/h) (km/h) (min)
01:00 22.376101805SSO0
02:00 21.879101800---0
03:00 21.180101900---0
04:00 20.283101900---0
05:00 19.885101900---0
06:00 19.686101900---0
07:00 20.281101900---0
08:00 21.578102000---10
09:00 24.064102000---60
10:00 25.157102000---50
11:00 27.453102000---55
12:00 28.251102003SSE50
13:00 28.946101902SSE45
14:00 29.746101903SO40
15:00 31.142101803OSO60
16:00 32.238101805OSO60
17:00 33.039101805O60
18:00 33.739101705O60
19:00 33.638101706ONO60
20:00 32.444101706NO60
21:00 30.746101706N20
22:00 28.151101902N0
23:00 25.661101902N0
minuit 24.271102000---0

Graphique du 21-07-2019

 

Serveur OMMA